Weather History for KFSE - October, 2014

Change the Weather History Date:

Wednesday, October 1, 2014

  Actual Average Record
Temperature  
Mean Temperature 52 °F -  
Max Temperature 64 °F 65 °F 88 °F (1989)
Min Temperature 41 °F 40 °F 23 °F (2003)
Degree Days  
Heating Degree Days 12    
Growing Degree Days 2 (Base 50)    
Moisture  
Dew Point 51 °F    
Average Humidity 77    
Maximum Humidity 93    
Minimum Humidity 52    
Precipitation  
Precipitation 0.00 in - - ()
Sea Level Pressure  
Sea Level Pressure 29.69 in    
Wind  
Wind Speed 15 mph (South)    
Max Wind Speed 21 mph    
Max Gust Speed 29 mph    
Visibility 10 miles    
Events      
Averages and records for this station are not official NWS values.
T = Trace of Precipitation, MM = Missing Value Source: NWS Daily Summary

Daily Weather History Graph

Daily Weather History Graph

Search for Another Location

Airport or City:

Trip Planner

Search our weather history database for the weather conditions in past years. The results will help you decide how hot, cold, wet, or windy it might be!

Date:

Astronomy

Oct. 01, 2014 Rise Set
Actual Time 7:22 AM CDT 7:02 PM CDT
Civil Twilight 6:51 AM CDT 7:33 PM CDT
Nautical Twilight 6:15 AM CDT 8:08 PM CDT
Astronomical Twilight 5:39 AM CDT 8:45 PM CDT
Moon 2:42 PM CDT (10/1) No Moon Set
Length of Visible Light 12h 41m
Length of Day
11h 40m
Waxing Crescent, 49% of the Moon is Illuminated
Oct 1
Waxing Crescent
Oct 1
First Quarter
Oct 8
Full
Oct 15
Last Quarter
Oct 23
New

Hourly Weather History & Observations

Time (CDT) Temp. Windchill Dew Point Humidity Pressure Visibility Wind Dir Wind Speed Gust Speed Precip Events Conditions
12:15 AM 53.6 °F - 46.4 °F 77% 29.68 in 10.0 mi SE 15.0 mph 19.6 mph N/A   Scattered Clouds
12:35 AM 53.6 °F - 46.4 °F 77% 29.67 in 10.0 mi SE 12.7 mph 20.7 mph N/A   Scattered Clouds
12:55 AM 53.6 °F - 46.4 °F 77% 29.66 in 10.0 mi SE 18.4 mph 23.0 mph N/A   Scattered Clouds
1:15 AM 53.6 °F - 46.4 °F 77% 29.66 in 10.0 mi SE 16.1 mph 25.3 mph N/A   Mostly Cloudy
1:35 AM 53.6 °F - 48.2 °F 82% 29.65 in 10.0 mi SE 15.0 mph 25.3 mph N/A   Overcast
1:55 AM 55.4 °F - 48.2 °F 77% 29.64 in 10.0 mi SE 17.3 mph 23.0 mph N/A   Overcast
2:15 AM 41.0 °F 37.1 °F 39.2 °F 93% 30.08 in 10.0 mi SE 5.8 mph - N/A   Clear
2:35 AM 55.4 °F - 48.2 °F 77% 29.64 in 10.0 mi SE 16.1 mph 26.5 mph N/A   Overcast
2:55 AM 53.6 °F - 48.2 °F 82% 29.63 in 10.0 mi SE 16.1 mph 24.2 mph N/A   Overcast
3:15 AM 55.4 °F - 48.2 °F 77% 29.62 in 10.0 mi SSE 18.4 mph 28.8 mph N/A   Overcast
3:35 AM 55.4 °F - 48.2 °F 77% 29.62 in 10.0 mi SSE 17.3 mph 26.5 mph N/A   Overcast
3:55 AM 55.4 °F - 50.0 °F 82% 29.62 in 10.0 mi SSE 17.3 mph 23.0 mph N/A   Mostly Cloudy
4:15 AM 55.4 °F - 50.0 °F 82% 29.62 in 10.0 mi SSE 20.7 mph 26.5 mph N/A   Mostly Cloudy
4:35 AM 55.4 °F - 51.8 °F 88% 29.62 in 10.0 mi SSE 18.4 mph 24.2 mph N/A   Mostly Cloudy
4:55 AM 57.2 °F - 51.8 °F 82% 29.62 in 10.0 mi SSE 18.4 mph 23.0 mph N/A   Mostly Cloudy
5:15 AM 55.4 °F - 51.8 °F 88% 29.62 in 10.0 mi SSE 20.7 mph 27.6 mph N/A   Mostly Cloudy
5:34 AM 57.2 °F - 51.8 °F 82% 29.62 in 10.0 mi SSE 19.6 mph 28.8 mph N/A   Overcast
5:55 AM 57.2 °F - 51.8 °F 82% 29.62 in 10.0 mi SSE 18.4 mph 23.0 mph N/A   Mostly Cloudy
6:55 AM 55.4 °F - 51.8 °F 88% 29.63 in 10.0 mi SSE 18.4 mph 21.9 mph N/A   Overcast
7:55 AM 57.2 °F - 53.6 °F 88% 29.65 in 10.0 mi SSE 15.0 mph 23.0 mph N/A   Overcast
8:15 AM 57.2 °F - 53.6 °F 88% 29.65 in 10.0 mi SSE 15.0 mph - N/A   Overcast
8:35 AM 57.2 °F - 53.6 °F 88% 29.65 in 10.0 mi South 17.3 mph 24.2 mph N/A   Mostly Cloudy
8:55 AM 57.2 °F - 53.6 °F 88% 29.66 in 10.0 mi South 16.1 mph 21.9 mph N/A   Mostly Cloudy
9:15 AM 42.8 °F 37.5 °F 41.0 °F 93% 29.97 in 10.0 mi ESE 9.2 mph - N/A   Overcast
9:35 AM 59.0 °F - 53.6 °F 82% 29.66 in 10.0 mi South 17.3 mph - N/A   Mostly Cloudy
9:55 AM 60.8 °F - 55.4 °F 82% 29.66 in 10.0 mi South 16.1 mph 23.0 mph N/A   Mostly Cloudy
10:15 AM 60.8 °F - 53.6 °F 77% 29.66 in 10.0 mi South 18.4 mph 25.3 mph N/A   Mostly Cloudy
10:35 AM 60.8 °F - 55.4 °F 82% 29.66 in 10.0 mi South 16.1 mph - N/A   Mostly Cloudy
10:55 AM 60.8 °F - 55.4 °F 82% 29.66 in 10.0 mi South 12.7 mph 25.3 mph N/A   Overcast
11:15 AM 62.6 °F - 55.4 °F 77% 29.65 in 10.0 mi South 16.1 mph 23.0 mph N/A   Mostly Cloudy
11:35 AM 62.6 °F - 55.4 °F 77% 29.65 in 10.0 mi South 17.3 mph - N/A   Mostly Cloudy
11:55 AM 64.4 °F - 55.4 °F 73% 29.65 in 10.0 mi South 17.3 mph 20.7 mph N/A   Overcast
12:15 PM 64.4 °F - 53.6 °F 68% 29.64 in 10.0 mi South 17.3 mph 25.3 mph N/A   Mostly Cloudy
12:35 PM 64.4 °F - 53.6 °F 68% 29.64 in 10.0 mi South 18.4 mph 21.9 mph N/A   Mostly Cloudy
12:55 PM 62.6 °F - 53.6 °F 72% 29.64 in 10.0 mi South 18.4 mph 25.3 mph N/A   Overcast
1:15 PM 62.6 °F - 53.6 °F 72% 29.63 in 10.0 mi South 15.0 mph - N/A   Overcast
1:35 PM 62.6 °F - 53.6 °F 72% 29.63 in 10.0 mi South 18.4 mph 25.3 mph N/A   Overcast
1:55 PM 62.6 °F - 53.6 °F 72% 29.63 in 10.0 mi South 19.6 mph 23.0 mph N/A   Overcast
2:15 PM 62.6 °F - 53.6 °F 72% 29.62 in 10.0 mi South 17.3 mph - N/A   Overcast
2:35 PM 62.6 °F - 53.6 °F 72% 29.62 in 10.0 mi South 16.1 mph 19.6 mph N/A   Overcast
2:55 PM 62.6 °F - 53.6 °F 72% 29.62 in 10.0 mi South 18.4 mph - N/A   Overcast
3:15 PM 59.0 °F - 42.8 °F 55% 29.82 in 10.0 mi ESE 13.8 mph 19.6 mph N/A   Scattered Clouds
3:34 PM 64.4 °F - 55.4 °F 73% 29.63 in 10.0 mi SW 17.3 mph - N/A   Mostly Cloudy
3:35 PM 59.0 °F - 42.8 °F 55% 29.80 in 10.0 mi ESE 13.8 mph 19.6 mph N/A   Mostly Cloudy
3:55 PM 64.4 °F - 53.6 °F 68% 29.63 in 10.0 mi SW 13.8 mph - N/A   Overcast
4:15 PM 64.4 °F - 51.8 °F 64% 29.64 in 10.0 mi SW 16.1 mph - N/A   Overcast
4:34 PM 64.4 °F - 51.8 °F 64% 29.64 in 10.0 mi SW 11.5 mph 17.3 mph N/A   Overcast
4:35 PM 60.8 °F - 42.8 °F 52% 29.78 in 10.0 mi ESE 12.7 mph 18.4 mph N/A   Scattered Clouds
4:55 PM 64.4 °F - 51.8 °F 64% 29.65 in 10.0 mi WSW 11.5 mph 17.3 mph N/A   Overcast
5:15 PM 62.6 °F - 51.8 °F 68% 29.66 in 10.0 mi WSW 15.0 mph 19.6 mph N/A   Overcast
5:34 PM 62.6 °F - 51.8 °F 68% 29.67 in 10.0 mi WSW 15.0 mph - N/A   Overcast
5:55 PM 62.6 °F - 51.8 °F 68% 29.68 in 10.0 mi West 13.8 mph 20.7 mph N/A   Overcast
6:15 PM 60.8 °F - 50.0 °F 68% 29.68 in 10.0 mi WSW 17.3 mph 20.7 mph N/A   Overcast
6:34 PM 60.8 °F - 51.8 °F 72% 29.69 in 10.0 mi WSW 11.5 mph - N/A   Overcast
6:35 PM 55.4 °F - 42.8 °F 63% 29.74 in 10.0 mi SE 12.7 mph 18.4 mph N/A   Overcast
6:55 PM 55.4 °F - 42.8 °F 63% 29.73 in 10.0 mi SE 17.3 mph 21.9 mph N/A   Scattered Clouds
7:15 PM 59.0 °F - 50.0 °F 72% 29.71 in 10.0 mi SW 10.4 mph - N/A   Overcast
7:35 PM 59.0 °F - 50.0 °F 72% 29.72 in 10.0 mi SW 9.2 mph - N/A   Overcast
7:55 PM 59.0 °F - 51.8 °F 77% 29.73 in 10.0 mi SW 12.7 mph - N/A   Overcast
8:15 PM 57.2 °F - 50.0 °F 77% 29.73 in 10.0 mi SW 9.2 mph - N/A   Overcast
8:35 PM 57.2 °F - 51.8 °F 82% 29.74 in 10.0 mi SW 6.9 mph - N/A   Overcast
8:55 PM 57.2 °F - 51.8 °F 82% 29.74 in 10.0 mi SW 8.1 mph - N/A   Overcast
9:15 PM 57.2 °F - 50.0 °F 77% 29.75 in 10.0 mi SW 9.2 mph - N/A   Overcast
9:35 PM 57.2 °F - 51.8 °F 82% 29.75 in 10.0 mi SW 9.2 mph - N/A   Overcast
9:55 PM 57.2 °F - 53.6 °F 88% 29.76 in 10.0 mi SW 6.9 mph - N/A   Overcast
10:15 PM 57.2 °F - 51.8 °F 82% 29.77 in 10.0 mi SW 4.6 mph - N/A   Overcast
10:34 PM 55.4 °F - 51.8 °F 88% 29.77 in 10.0 mi Calm Calm - N/A   Overcast
10:35 PM 53.6 °F - 44.6 °F 72% 29.70 in 10.0 mi SE 15.0 mph 26.5 mph N/A   Mostly Cloudy
10:55 PM 55.4 °F - 51.8 °F 88% 29.77 in 10.0 mi SW 8.1 mph - N/A   Overcast
11:15 PM 55.4 °F - 50.0 °F 82% 29.78 in 10.0 mi SW 6.9 mph - N/A   Overcast
11:35 PM 55.4 °F - 50.0 °F 82% 29.78 in 10.0 mi SW 8.1 mph - N/A   Overcast
11:55 PM 55.4 °F - 50.0 °F 82% 29.78 in 10.0 mi SW 6.9 mph - N/A   Overcast